User: anonymous   Login
Location: Cheyres
(46.8153°N, 6.7877°E)
Time: 08:50:31
(UTC+00:00)
Language:

CUBESAT XI-V - Orbit

View from above orbital plane
View from above orbital plane
View from above satellite
View from above satellite

Ground track
Ground track

The orbit data is extracted from the following two-line orbital elements,

1 28895U 05043F   22178.15339705  .00000624  00000-0  12680-3 0  9999
2 28895  98.1079 309.3826 0017969 109.8771 250.4370 14.64362183889064
Epoch (UTC): 27 June 2022 03:40:53
Eccentricity: 0.0017969
inclination: 98.1079°
perigee height: 666 km
apogee height: 692 km
right ascension of ascending node: 309.3826°
argument of perigee: 109.8771°
revolutions per day: 14.64362183
mean anomaly at epoch: 250.4370°
orbit number at epoch: 88906

The dashed part of the orbit path shows where the satellite is in the earth's shadow,  

DLR